Simultaneous Nadir Overpasses (SNOs) Predictions

Prediction of SNOs between GOES-14 and AQUA Satellite Orbit:

Table of predicted SNOs for the next 14.0 days since TLE Epoch: 8/22/2020
Index Date Time (GOES-14) GOES-14 Lat,Lon AQUA Lat,Lon Distance(km) Time Diff (sec)
1 08/22/2020 08:27:00 0.42,-104.47 0.14,-103.13 151.55 80
2 08/22/2020 20:48:25 -0.42,-104.62 -1.22,-108.33 421.82 80
3 08/24/2020 08:14:49 0.41,-104.46 -0.50,-100.18 486.96 80
4 08/24/2020 20:36:14 -0.42,-104.62 -0.58,-105.38 85.97 80
5 08/26/2020 20:26:43 -0.41,-104.62 0.06,-102.43 249.50 80
6 08/27/2020 08:47:58 0.41,-104.48 1.04,-107.58 352.16 80
7 08/29/2020 08:35:46 0.40,-104.47 0.45,-104.62 17.21 80
8 08/31/2020 08:20:55 0.40,-104.46 -0.20,-101.67 318.21 80
9 08/31/2020 20:42:20 -0.39,-104.59 -0.88,-106.86 258.62 80
10 09/02/2020 20:32:49 -0.39,-104.59 -0.23,-103.91 77.83 80
11 09/04/2020 20:20:37 -0.39,-104.60 0.37,-100.95 414.74 80
